BEIDOU 16 (C02)

Last updated on April 1, 2020, 4:59 a.m. UTC

1 38953U 12059A   20091.14354979 -.00000177  00000-0  00000-0 0  9995
2 38953   1.7462  83.8558 0004759 242.2232 358.5798  1.00274279 27296
UTC
Height (km)
Latitude
Longitude
Inclination
Orbital Period
UTC large
Height (km)
Speed (km/s)
/
Latitude / Longitude
Inclination (degrees)
Orbital Period (minutes)
Azimuth
Elevation
Range (km)
Doppler Factor
iOS Compass Heading
iOS Angle

Next 30 passes for location: Hong Kong

Rise time Rise Azimuth (degrees) Set time Set Azimuth (degrees) Duration Max altitude (degrees)

No matching passes for this satellites